Weather in Stanovoe

Russia / Lipetsk Oblast     52°45′52″N   38°20′43″E
temp.,
°C
wind,
m/s
gust,
m/s
humid.,
%
clouds,
%
prec.,
mm/h
press.,
hPa
HPBL,
m
24 july, sat
sat2400:00+17nw366582 0.0 1010159
03:00+15nw3376100 0.0 101146
06:00+16nw227954 0.0 101169
09:00+20nnw34620 0.0 1012770
12:00+23nw564599 0.3 10122309
15:00+20nnw5756100 0.3 1014906
18:00+20n455315 0.0 10151320
21:00+17n346119 0.0 101770
25 july, sun
sun2500:00+14nne22620 0.0 101814
03:00+13nne11630 0.0 101910
06:00+14n12642 0.0 102021
09:00+19nne11470 0.0 1021517
12:00+23w123721 0.0 10212193
15:00+24w123585 0.0 10212375
18:00+22n2347100 0.0 1021206
21:00+18ene245010 0.0 102363
26 july, mon
mon2600:00+16e22572 0.0 102416
03:00+14ene11650 0.0 102410
06:00+14ene23680 0.0 102550
09:00+20e23520 0.0 1025575
12:00+24e11391 0.0 10252010
15:00+25n113514 0.0 10242295
18:00+25nnw123882 0.0 10231519
21:00+20ne115013 0.0 102311
27 july, tue
tue2700:00+17e22550 0.0 102417
03:00+16ne11573 0.0 102411
06:00+17n11605 0.0 102411
09:00+23ne12433 0.0 1024431
12:00+26ese12323 0.0 10232405
15:00+27n013040 0.0 10222690
18:00+26nne22351 0.0 10221188
21:00+20e11450 0.0 102211
28 july, wed
wed2800:00+19nne00487 0.0 102211
03:00+17sw11542 0.0 102111
06:00+18ssw11564 0.0 102111
09:00+24s22414 0.0 1020425
12:00+28ssw33325 0.0 10182398
15:00+29ssw33299 0.0 10162732
18:00+27sw4636100 0.0 1015629
21:00+22ssw3346100 0.0 101538